YAOGAN-27

Last updated on Thu Dec 18 2025 00:02:31 GMT+0000 (Coordinated Universal Time)

1 40878U 15040A 25351.64236203 .00000361 00000+0 10619-2 0 9997 2 40878 100.1007 341.0407 0007597 274.9746 85.0501 13.16061670493785
UTC large
Height (km)
Speed (km/s)
/
Latitude / Longitude
Inclination (degrees)
Orbital Period (minutes)
Azimuth
Elevation
Range (km)
Doppler Factor

Next 0 passes for location: London (51.5072 / 0.1276)

Sorry there are no passes over London.